Location: Home
(42.5358°N, 72.7383°W)
Time: 06:40:08
(UTC-04:00)

COSMOS 2251 DEB - Pass Details

Date: 28 June 2022
Orbit: 769 x 1233 km, 74.1° (Epoch: 15 August)

Event Time Altitude Azimuth Distance (km) Brightness Sun altitude
Exits shadow 01:52:53 22° 133° (SE) 1,849 ? -22.8°
Maximum altitude 01:55:14 29° 96° (E) 1,633 ? -22.7°
Drops below altitude 10° 02:00:36 10° 39° (NE) 2,786 ? -22.4°
Sets 02:03:38 0° 29° (NNE) 3,823 ? -22.3°
